Regional Weather Roundup
Issued by NWS

Home | Current Version | Previous Version | Text Only | Print | Product List | Glossary On
Versions: 1 2 3 4 5 6 7 8 9 10 11 12 13 14 15 16 17 18 19 20 21 22 23 24 25 26 27 28 29 30 31 32 33 34 35 36 37 38 39 40 41 42 43 44 45 46 47 48 49 50
000
ASUS43 KIND 261359
RWRIN

WEATHER ROUNDUP FOR INDIANA
NATIONAL WEATHER SERVICE INDIANAPOLIS IN
1000 AM EDT WED APR 26 2017

NOTE: "FAIR" INDICATES FEW OR NO CLOUDS BELOW 12,000 FEET WITH NO
SIGNIFICANT WEATHER AND/OR OBSTRUCTIONS TO VISIBILITY.

* - STATION DOES NOT REPORT WEATHER SUCH AS PRECIPITATION OR FOG.

+ - STATION NOT QUALITY CONTROLLED BY THE NATIONAL WEATHER SERVICE.
    USE DATA WITH CAUTION...ESPECIALLY DEWPOINT AND RELATIVE
    HUMIDITY OBSERVATIONS.

INZ001>003-010>013-019-020-261500-
NORTHWEST INDIANA

CITY           SKY/WX    TMP DP  RH WIND       PRES   REMARKS
GARY /AIRPORT/ CLOUDY    68  54  60 SE8       29.47F
KNOX *+        CLOUDY    68  34  28 S16       29.52F
MICHIGAN CITY+ CLOUDY    68  55  64 S10G22    29.50F
MONTICELLO +   CLOUDY    68  55  64 S14G20    29.54F
RENSSELAER +   MOSUNNY   70  55  60 S17G23    29.50F

$$

LMZ046-743>745-261500-
SOUTHERN LAKE MICHIGAN

STATION/POSITION TIME  TEMP    WIND        PRES    WAVE
                       AIR SEA DIR/SP/G            HT
                 (UTC) (F)     (DEG/KT/KT) (MB)    (FT)
BURNS HARBOR     1340   68     170/ 11/ 17  999.3F
MICHIGAN CITY    1330   66     140/ 13/ 17   N/A
5NW MICH CITY    1350   62 49                N/A     1

$$

INZ004-005-014>016-021>024-261500-
NORTH CENTRAL INDIANA

CITY           SKY/WX    TMP DP  RH WIND       PRES   REMARKS
ELKHART        CLOUDY    66  55  68 S12       29.57F
GOSHEN         CLOUDY    67  55  65 S15       29.58F
PERU/GRISSOM   PTSUNNY   67  58  72 S14       29.57F
SOUTH BEND     CLOUDY    67  56  67 SE15      29.53F
WARSAW +       CLOUDY    64  55  72 S5        29.58F

$$

INZ006>009-017-018-025>027-261500-
NORTHEAST INDIANA

CITY           SKY/WX    TMP DP  RH WIND       PRES   REMARKS
ANGOLA *+      SUNNY     64  55  72 S10       29.62F
AUBURN +       CLOUDY    66  55  68 S6        29.63F
FORT WAYNE     PTSUNNY   67  56  67 S16       29.62F
HUNTINGTON +   CLOUDY    67  56  69 S12       29.61F
KENDALLVILLE + CLOUDY    65  57  76 S12G20    29.62F

$$

INZ028-029-035-036-043>045-051>053-261500-
WEST CENTRAL INDIANA

CITY           SKY/WX    TMP DP  RH WIND       PRES   REMARKS
CRAWFORDSVL +  MOSUNNY   67  57  69 S16G23    29.57F
GREENCASTLE +  MOSUNNY   68  55  64 S14       29.59F
LAFAYETTE      NOT AVBL
TERRE HAUTE    SUNNY     70  57  63 S18G24    29.56F

$$

INZ030>032-037>040-046>048-054>057-064-065-261500-
CENTRAL INDIANA

CITY           SKY/WX    TMP DP  RH WIND       PRES   REMARKS
COLUMBUS       SUNNY     64  55  72 S12       29.65F
FRANKFORT +    PTSUNNY   71  58  64 SW14      29.59F
GREENWOOD *+   PTSUNNY   66  56  70 S10       29.63F
INDIANAPOLIS   PTSUNNY   66  57  72 S14G22    29.59F
-EAGLE CREEK   CLOUDY    66  56  70 SE7G16    29.59F
KOKOMO +       CLOUDY    67  57  70 S16       29.59F
SHELBYVILLE    CLOUDY    70  56  61 S14       29.64F

$$

INZ033-034-041-042-049-050-058-059-261500-
EAST CENTRAL INDIANA

CITY           SKY/WX    TMP DP  RH WIND       PRES   REMARKS
MUNCIE         CLOUDY    70  56  61 S10       29.63F
RICHMOND +     CLOUDY    66  55  68 S13       29.70F

$$

INZ060-061-067>069-081>083-085>088-261500-
SOUTHWEST INDIANA

CITY           SKY/WX    TMP DP  RH WIND       PRES   REMARKS
EVANSVILLE     SUNNY     70  58  65 S13       29.62F
HUNTINGBURG *+ PTSUNNY   69  59  70 S15       29.64F
WASHINGTON +   MOSUNNY   70  55  60 S16       29.60F

$$

INZ062-063-066-070>080-084-089>092-261500-
SOUTH CENTRAL AND SOUTHEAST INDIANA

CITY           SKY/WX    TMP DP  RH WIND       PRES   REMARKS
BLOOMINGTON    PTSUNNY   67  56  67 S10       29.62F
MADISON *+     CLOUDY    68  55  64 S13G18    29.71F
SEYMOUR +      PTSUNNY   70  57  64 S9        29.65F

$$





USA.gov is the U.S. government's official web portal to all federal, state and local government web resources and services.